Simultaneous Nadir Overpasses (SNOs) Predictions

Prediction of SNOs between AQUA and METOP-B Satellite Orbit:

Table of predicted SNOs for the next 14.0 days since TLE Epoch: 11/14/2014
Index Date (AQUA) Time (AQUA) Lat,Lon (AQUA) SZA (AQUA ) Date (METOP-B) Time (METOP-B) Lat,Lon (METOP-B) SZA (METOP-B ) Distance(km) Time Diff (sec)
1 11/16/2014 23:02:17 -73.72, 8.88 87.47 11/16/2014 23:01:44 -73.75, 8.88 87.44 2.97 33
2 11/16/2014 23:51:46 73.79, 176.36 92.61 11/16/2014 23:52:23 73.79, 176.31 92.61 1.68 37
3 11/19/2014 18:36:36 -73.76, 75.23 86.77 11/19/2014 18:36:10 -73.73, 75.23 86.80 3.54 26
4 11/19/2014 19:26:04 73.78,-117.19 93.27 11/19/2014 19:26:48 73.81,-117.24 93.30 3.23 44
5 11/22/2014 14:10:53 -73.73, 141.72 86.17 11/22/2014 14:10:35 -73.74, 141.68 86.15 1.97 18
6 11/22/2014 15:00:22 73.81, -50.82 93.93 11/22/2014 15:01:13 73.82, -50.80 93.93 1.18 51
7 11/25/2014 08:55:35 73.31, 41.40 93.98 11/25/2014 08:54:26 73.29, 39.72 93.98 53.58 69
8 11/25/2014 09:45:09 -73.74,-151.88 85.58 11/25/2014 09:44:59 -73.75,-151.89 85.57 1.31 10
9 11/25/2014 10:34:38 73.83, 15.57 94.52 11/25/2014 10:35:37 73.82, 15.61 94.52 1.31 59
10 11/28/2014 04:29:57 73.63, 107.16 94.83 11/28/2014 04:28:45 73.59, 106.81 94.80 11.98 72
11 11/28/2014 05:19:25 -73.75, -85.45 85.05 11/28/2014 05:19:24 -73.76, -85.48 85.04 1.61 1




NCC Satellite Simultaneous Nadir Overpasses (SNOs) Prediction Service
